Location: Saluda
(35.2377°N, 82.3468°W)
Time: 11:27:07
(UTC+00:00)

Courier 1B - All Passes

Search period start: 05 October 2022 00:00
Search period end: 15 October 2022 00:00
Orbit: 962 x 1209 km, 28.3° (Epoch: 05 October)

Date Brightness Start Highest point End Pass type
(mag) Time Alt. Az. Time Alt. Az. Time Alt. Az.
05 Oct - 01:06:09 10° SW 01:09:03 13° SSW 01:11:53 10° S visible
05 Oct - 16:35:55 10° SSW 16:41:04 19° SSE 16:46:06 10° ESE daylight
05 Oct - 18:27:41 10° SW 18:34:40 39° SSE 18:41:20 10° E daylight
05 Oct - 20:21:19 10° WSW 20:28:29 50° S 20:35:14 10° ESE daylight
05 Oct - 22:15:38 10° W 22:22:12 39° SSW 22:28:24 10° SE daylight
06 Oct - 00:11:05 10° WSW 00:15:30 18° SSW 00:19:47 10° SSE visible
06 Oct - 15:43:23 10° S 15:47:20 15° SSE 15:51:14 10° ESE daylight
06 Oct - 17:34:02 10° SW 17:40:52 34° SSE 17:47:26 10° E daylight
06 Oct - 19:27:23 10° WSW 19:34:40 49° S 19:41:33 10° ESE daylight
06 Oct - 21:21:34 10° W 21:28:29 44° S 21:34:59 10° ESE daylight
06 Oct - 23:16:32 10° WSW 23:21:56 24° SSW 23:27:06 10° SSE daylight
07 Oct - 14:52:31 10° SSE 14:53:36 10° SSE 14:54:42 10° SE daylight
07 Oct - 16:40:35 10° SW 16:47:03 29° SSE 16:53:22 10° ESE daylight
07 Oct - 18:33:29 10° WSW 18:40:50 47° S 18:47:49 10° E daylight
07 Oct - 20:27:32 10° WSW 20:34:42 48° S 20:41:28 10° ESE daylight
07 Oct - 22:22:12 10° WSW 22:28:18 30° SSW 22:34:06 10° SE daylight
08 Oct - 00:20:42 10° SW 00:21:25 10° SSW 00:22:09 10° SSW visible
08 Oct - 15:47:21 10° SSW 15:53:16 24° SSE 15:59:07 10° ESE daylight
08 Oct - 17:39:40 10° WSW 17:46:57 43° SSE 17:54:00 10° E daylight
08 Oct - 19:33:31 10° WSW 19:40:53 51° S 19:47:51 10° ESE daylight
08 Oct - 21:27:59 10° W 21:34:37 36° SSW 21:40:53 10° SE daylight
08 Oct - 23:24:07 10° WSW 23:27:53 15° SSW 23:31:32 10° S visible
09 Oct - 14:54:27 10° SSW 14:59:31 19° SSE 15:04:34 10° ESE daylight
09 Oct - 16:45:58 10° SW 16:53:06 39° SSE 17:00:05 10° E daylight
09 Oct - 18:39:32 10° WSW 18:47:01 51° S 18:54:10 10° ESE daylight
09 Oct - 20:33:52 10° W 20:40:52 41° SSW 20:47:31 10° SE daylight
09 Oct - 22:29:12 10° WSW 22:34:17 20° SSW 22:39:11 10° SSE daylight
10 Oct - 14:02:10 10° S 14:05:47 14° SSE 14:09:24 10° ESE daylight
10 Oct - 15:52:26 10° SW 15:59:16 33° SSE 16:06:03 10° E daylight
10 Oct - 17:45:37 10° WSW 17:53:07 50° S 18:00:23 10° ESE daylight
10 Oct - 19:39:46 10° W 19:47:04 46° S 19:54:00 10° ESE daylight
10 Oct - 21:34:41 10° WSW 21:40:39 26° SSW 21:46:21 10° SSE daylight
11 Oct - 14:59:04 10° SSW 15:05:28 28° SSE 15:11:51 10° ESE daylight
11 Oct - 16:51:47 10° WSW 16:59:13 47° S 17:06:32 10° E daylight
11 Oct - 18:45:44 10° WSW 18:53:13 50° S 19:00:23 10° ESE daylight
11 Oct - 20:40:21 10° W 20:46:57 32° SSW 20:53:15 10° SE daylight
11 Oct - 22:37:31 10° SW 22:40:12 12° SSW 22:42:51 10° S daylight
12 Oct - 14:05:59 10° SSW 14:11:41 22° SSE 14:17:27 10° ESE daylight
12 Oct - 15:58:02 10° SW 16:05:20 43° SSE 16:12:36 10° E daylight
12 Oct - 17:51:45 10° WSW 17:59:19 52° S 18:06:40 10° ESE daylight
12 Oct - 19:46:09 10° W 19:53:11 38° SSW 19:59:55 10° SE daylight
12 Oct - 21:42:00 10° WSW 21:46:35 17° SSW 21:51:02 10° S daylight
13 Oct - 13:13:19 10° S 13:17:58 17° SSE 13:22:40 10° ESE daylight
13 Oct - 15:04:27 10° SW 15:11:28 38° SSE 15:18:34 10° E daylight
13 Oct - 16:57:49 10° WSW 17:05:24 52° S 17:12:51 10° ESE daylight
13 Oct - 18:52:03 10° W 18:59:22 44° SSW 19:06:25 10° ESE daylight
13 Oct - 20:47:14 10° WSW 20:52:56 23° SSW 20:58:25 10° SSE daylight
14 Oct - 12:21:28 10° S 12:24:16 12° SSE 12:27:07 10° SE daylight
14 Oct - 14:11:01 10° SW 14:17:39 32° SSE 14:24:24 10° E daylight
14 Oct - 16:03:59 10° WSW 16:11:29 50° S 16:18:57 10° ESE daylight
14 Oct - 17:58:00 10° W 18:05:29 48° S 18:12:47 10° ESE daylight
14 Oct - 19:52:46 10° WSW 19:59:13 29° SSW 20:05:25 10° SE daylight
